VLG6010 LEBL-LIMJ

Flight info

Callsign VLG6010
Flight time 1h 3m
Altitude 30000
Route AGENA M985 LUMAS DCT UNANA DCT STP DCT RAPED Y15 EGHIN
Aircraft A321/M-SDE3FGHIRWY/LB1

Departure

Time 2026-05-09 10:42
Airport Josep Tarradellas Barcelona-El Prat Airport (LEBL)

Arrival

Time 2026-05-09 11:45
Airport Genoa Cristoforo Colombo Airport (LIMJ)
Time Latitude Longitude Altitude Speed Heading
2026-05-09 10:09 41.29099 2.07795 19 ft 0 kts 155°
2026-05-09 10:27 41.29100 2.07795 19 ft 2 kts 155°
2026-05-09 10:28 41.29122 2.07782 19 ft 4 kts 155°
2026-05-09 10:28 41.29142 2.07769 20 ft 3 kts 155°
2026-05-09 10:28 41.29162 2.07751 22 ft 4 kts 116°
2026-05-09 10:28 41.29164 2.07725 21 ft 3 kts 65°
2026-05-09 10:29 41.29156 2.07700 20 ft 0 kts 65°
2026-05-09 10:32 41.29163 2.07723 22 ft 6 kts 65°
2026-05-09 10:32 41.29180 2.07771 20 ft 6 kts 65°
2026-05-09 10:32 41.29196 2.07819 21 ft 6 kts 65°
2026-05-09 10:33 41.29212 2.07867 20 ft 6 kts 65°
2026-05-09 10:33 41.29229 2.07916 19 ft 7 kts 65°
2026-05-09 10:33 41.29268 2.08029 21 ft 20 kts 65°
2026-05-09 10:33 41.29326 2.08196 20 ft 15 kts 65°
2026-05-09 10:34 41.29365 2.08309 19 ft 10 kts 67°
2026-05-09 10:34 41.29260 2.08444 21 ft 18 kts 155°
2026-05-09 10:34 41.29145 2.08419 20 ft 17 kts 200°
2026-05-09 10:35 41.29036 2.08369 19 ft 16 kts 199°
2026-05-09 10:35 41.28931 2.08321 18 ft 15 kts 199°
2026-05-09 10:35 41.28831 2.08276 17 ft 15 kts 199°
2026-05-09 10:35 41.28728 2.08231 16 ft 16 kts 199°
2026-05-09 10:36 41.28658 2.08134 17 ft 14 kts 245°
2026-05-09 10:36 41.28618 2.08018 16 ft 13 kts 245°
2026-05-09 10:36 41.28572 2.07883 16 ft 20 kts 245°
2026-05-09 10:36 41.28502 2.07678 16 ft 26 kts 246°
2026-05-09 10:37 41.28430 2.07471 17 ft 22 kts 244°
2026-05-09 10:37 41.28341 2.07336 16 ft 17 kts 190°
2026-05-09 10:37 41.28326 2.07341 16 ft 0 kts 162°
2026-05-09 10:38 41.28325 2.07341 16 ft 1 kts 162°
2026-05-09 10:39 41.28268 2.07374 16 ft 15 kts 154°
2026-05-09 10:39 41.28247 2.07479 19 ft 12 kts 67°
2026-05-09 10:39 41.28257 2.07509 21 ft 0 kts 65°
2026-05-09 10:41 41.28303 2.07645 21 ft 50 kts 65°
2026-05-09 10:41 41.28537 2.08336 21 ft 111 kts 66°
2026-05-09 10:41 41.28919 2.09463 69 ft 151 kts 68°
2026-05-09 10:42 41.29336 2.10765 572 ft 155 kts 67°
2026-05-09 10:42 41.29585 2.12160 1205 ft 156 kts 87°
2026-05-09 10:42 41.29472 2.13654 1575 ft 172 kts 98°
2026-05-09 10:42 41.29227 2.15302 1792 ft 190 kts 98°
2026-05-09 10:43 41.28986 2.17079 2210 ft 200 kts 98°
2026-05-09 10:43 41.28726 2.18927 2926 ft 205 kts 98°
2026-05-09 10:43 41.28478 2.20766 3984 ft 194 kts 99°
2026-05-09 10:43 41.28253 2.22570 4639 ft 203 kts 98°
2026-05-09 10:44 41.28044 2.24466 5132 ft 212 kts 98°
2026-05-09 10:44 41.27853 2.26438 5718 ft 214 kts 98°
2026-05-09 10:44 41.27676 2.28362 6526 ft 207 kts 99°
2026-05-09 10:44 41.27501 2.30293 6970 ft 218 kts 99°
2026-05-09 10:45 41.27299 2.32393 7143 ft 244 kts 100°
2026-05-09 10:46 41.26086 2.42513 9583 ft 284 kts 101°
2026-05-09 10:46 41.25837 2.45155 10195 ft 294 kts 98°
2026-05-09 10:46 41.25604 2.47954 10410 ft 317 kts 99°
2026-05-09 10:46 41.25347 2.50959 10674 ft 335 kts 98°
2026-05-09 10:47 41.25171 2.54088 11246 ft 345 kts 90°
2026-05-09 10:47 41.25622 2.57256 11915 ft 354 kts 72°
2026-05-09 10:47 41.26774 2.60172 12598 ft 362 kts 57°
2026-05-09 10:47 41.28230 2.62920 13301 ft 366 kts 57°
2026-05-09 10:48 41.29612 2.65767 13982 ft 368 kts 64°
2026-05-09 10:48 41.30799 2.68801 14577 ft 371 kts 65°
2026-05-09 10:48 41.31967 2.71878 15238 ft 374 kts 65°
2026-05-09 10:48 41.33129 2.74989 15873 ft 377 kts 66°
2026-05-09 10:49 41.34293 2.78128 16519 ft 380 kts 66°
2026-05-09 10:49 41.35469 2.81293 17167 ft 383 kts 66°
2026-05-09 10:49 41.36660 2.84485 17798 ft 386 kts 65°
2026-05-09 10:49 41.37865 2.87699 18404 ft 389 kts 65°
2026-05-09 10:50 41.39083 2.90941 18919 ft 394 kts 66°
2026-05-09 10:50 41.40314 2.94217 19416 ft 398 kts 66°
2026-05-09 10:50 41.41561 2.97535 19881 ft 403 kts 66°
2026-05-09 10:50 41.42818 3.00887 20361 ft 407 kts 66°
2026-05-09 10:51 41.44087 3.04282 20831 ft 411 kts 66°
2026-05-09 10:51 41.44934 3.06553 21124 ft 414 kts 66°
2026-05-09 10:51 41.46658 3.11189 21744 ft 420 kts 67°
2026-05-09 10:51 41.47519 3.13510 22046 ft 423 kts 67°
2026-05-09 10:52 41.49190 3.18280 22646 ft 426 kts 73°
2026-05-09 10:52 41.50018 3.22071 23089 ft 426 kts 82°
2026-05-09 10:52 41.50658 3.25945 23522 ft 430 kts 82°
2026-05-09 10:52 41.51308 3.29855 23896 ft 434 kts 82°
2026-05-09 10:53 41.51967 3.33798 24270 ft 437 kts 82°
2026-05-09 10:53 41.52633 3.37772 24644 ft 440 kts 82°
2026-05-09 10:53 41.53300 3.41767 25023 ft 443 kts 82°
2026-05-09 10:53 41.53971 3.45797 25394 ft 446 kts 82°
2026-05-09 10:54 41.54643 3.49849 25771 ft 449 kts 82°
2026-05-09 10:54 41.55090 3.52551 26024 ft 451 kts 82°
2026-05-09 10:54 41.55994 3.58039 26515 ft 455 kts 82°
2026-05-09 10:54 41.56674 3.62177 26876 ft 458 kts 82°
2026-05-09 10:55 41.57358 3.66340 27243 ft 460 kts 82°
2026-05-09 10:55 41.57811 3.69113 27475 ft 462 kts 82°
2026-05-09 10:55 41.58497 3.73320 27823 ft 465 kts 82°
2026-05-09 10:55 41.59419 3.78989 28290 ft 468 kts 83°
2026-05-09 10:56 41.60111 3.83253 28552 ft 473 kts 83°
2026-05-09 10:56 41.60805 3.87560 28822 ft 477 kts 83°
2026-05-09 10:56 41.61507 3.91905 29125 ft 480 kts 83°
2026-05-09 10:56 41.61974 3.94801 29329 ft 482 kts 83°
2026-05-09 10:57 41.64327 4.09413 29989 ft 475 kts 83°
2026-05-09 10:58 41.65702 4.17938 29993 ft 466 kts 83°
2026-05-09 10:58 41.67037 4.26433 29994 ft 469 kts 83°
2026-05-09 10:59 41.68373 4.34976 29994 ft 470 kts 83°
2026-05-09 10:59 41.69720 4.43526 29998 ft 469 kts 83°
2026-05-09 11:00 41.71060 4.52064 29989 ft 469 kts 83°
2026-05-09 11:00 41.72451 4.60589 29962 ft 472 kts 78°
2026-05-09 11:00 41.73623 4.64714 29968 ft 478 kts 67°
2026-05-09 11:01 41.75293 4.68574 29972 ft 482 kts 57°
2026-05-09 11:01 41.77422 4.72057 29975 ft 484 kts 46°
2026-05-09 11:01 41.79829 4.75219 29979 ft 485 kts 45°
2026-05-09 11:02 41.84650 4.81557 29987 ft 486 kts 45°
2026-05-09 11:02 41.89457 4.87944 30007 ft 486 kts 45°
2026-05-09 11:03 41.93448 4.93255 30009 ft 486 kts 45°
2026-05-09 11:03 41.98248 4.99639 29992 ft 486 kts 45°
2026-05-09 11:04 42.03051 5.06038 30002 ft 486 kts 45°
2026-05-09 11:04 42.07843 5.12440 30007 ft 486 kts 45°
2026-05-09 11:05 42.12637 5.18849 30037 ft 485 kts 45°
2026-05-09 11:05 42.17415 5.25256 30034 ft 484 kts 45°
2026-05-09 11:06 42.22180 5.31661 30025 ft 483 kts 45°
2026-05-09 11:06 42.26922 5.38053 30005 ft 483 kts 45°
2026-05-09 11:07 42.31679 5.44476 30022 ft 484 kts 45°
2026-05-09 11:07 42.36430 5.50911 30028 ft 483 kts 45°
2026-05-09 11:08 42.41177 5.57353 30033 ft 483 kts 45°
2026-05-09 11:08 42.45917 5.63801 30030 ft 483 kts 45°
2026-05-09 11:09 42.50654 5.70261 30047 ft 483 kts 45°
2026-05-09 11:09 42.55376 5.76709 30032 ft 482 kts 45°
2026-05-09 11:10 42.60090 5.83162 30035 ft 481 kts 45°
2026-05-09 11:10 42.64800 5.89623 30037 ft 481 kts 45°
2026-05-09 11:11 42.69497 5.96084 30040 ft 481 kts 45°
2026-05-09 11:11 42.74199 6.02562 30039 ft 481 kts 45°
2026-05-09 11:12 42.78892 6.09043 30026 ft 481 kts 45°
2026-05-09 11:12 42.83582 6.15532 30036 ft 481 kts 45°
2026-05-09 11:13 42.88526 6.21650 30065 ft 480 kts 38°
2026-05-09 11:13 42.93639 6.27502 30066 ft 479 kts 38°
2026-05-09 11:14 42.98743 6.33356 30066 ft 479 kts 38°
2026-05-09 11:14 43.03834 6.39217 30058 ft 478 kts 38°
2026-05-09 11:15 43.08916 6.45082 30073 ft 477 kts 38°
2026-05-09 11:15 43.13984 6.50941 30075 ft 476 kts 38°
2026-05-09 11:16 43.19046 6.56799 30091 ft 476 kts 38°
2026-05-09 11:16 43.23630 6.63323 30068 ft 477 kts 54°
2026-05-09 11:17 43.27513 6.70721 30081 ft 477 kts 53°
2026-05-09 11:17 43.31419 6.78091 30080 ft 477 kts 53°
2026-05-09 11:18 43.35317 6.85470 30063 ft 477 kts 53°
2026-05-09 11:18 43.39201 6.92876 30067 ft 478 kts 53°
2026-05-09 11:19 43.43084 7.00301 30097 ft 478 kts 53°
2026-05-09 11:19 43.46962 7.07717 30096 ft 477 kts 53°
2026-05-09 11:20 43.50834 7.15129 30089 ft 477 kts 53°
2026-05-09 11:20 43.54696 7.22553 30084 ft 476 kts 53°
2026-05-09 11:21 43.58540 7.29984 30086 ft 476 kts 53°
2026-05-09 11:21 43.62278 7.37525 30095 ft 477 kts 60°
2026-05-09 11:22 43.65086 7.45809 30091 ft 476 kts 65°
2026-05-09 11:22 43.67807 7.54133 30094 ft 476 kts 65°
2026-05-09 11:23 43.70528 7.62458 30061 ft 475 kts 66°
2026-05-09 11:23 43.73415 7.70679 30069 ft 475 kts 57°
2026-05-09 11:24 43.77534 7.77827 29402 ft 479 kts 46°
2026-05-09 11:24 43.79729 7.81258 28660 ft 470 kts 46°
2026-05-09 11:24 43.81857 7.84589 28244 ft 454 kts 46°
2026-05-09 11:24 43.83921 7.87826 27744 ft 443 kts 46°
2026-05-09 11:25 43.85944 7.91005 27252 ft 439 kts 47°
2026-05-09 11:25 43.87956 7.94170 26790 ft 435 kts 46°
2026-05-09 11:25 43.89940 7.97292 26318 ft 428 kts 46°
2026-05-09 11:25 43.91894 8.00368 25881 ft 423 kts 46°
2026-05-09 11:26 43.93828 8.03421 25446 ft 419 kts 46°
2026-05-09 11:26 43.95741 8.06448 25011 ft 415 kts 46°
2026-05-09 11:26 43.97637 8.09447 24579 ft 411 kts 46°
2026-05-09 11:26 43.99511 8.12422 24160 ft 408 kts 47°
2026-05-09 11:27 44.01370 8.15377 23733 ft 405 kts 47°
2026-05-09 11:27 44.03201 8.18326 23240 ft 402 kts 50°
2026-05-09 11:27 44.04741 8.21539 22823 ft 398 kts 60°
2026-05-09 11:27 44.05854 8.25034 22394 ft 394 kts 71°
2026-05-09 11:28 44.06525 8.28711 21964 ft 390 kts 79°
2026-05-09 11:28 44.07018 8.32406 21541 ft 387 kts 79°
2026-05-09 11:28 44.07510 8.36068 21101 ft 384 kts 79°
2026-05-09 11:28 44.08004 8.39712 20656 ft 382 kts 79°
2026-05-09 11:29 44.08495 8.43316 20222 ft 380 kts 78°
2026-05-09 11:29 44.08989 8.46933 19781 ft 378 kts 78°
2026-05-09 11:29 44.09477 8.50513 19342 ft 376 kts 78°
2026-05-09 11:29 44.09961 8.54073 18909 ft 374 kts 78°
2026-05-09 11:30 44.10443 8.57624 18478 ft 373 kts 78°
2026-05-09 11:30 44.10921 8.61160 17996 ft 371 kts 78°
2026-05-09 11:30 44.11392 8.64672 17572 ft 368 kts 78°
2026-05-09 11:30 44.11853 8.68158 17149 ft 365 kts 79°
2026-05-09 11:31 44.12309 8.71613 16732 ft 362 kts 79°
2026-05-09 11:31 44.12762 8.75043 16320 ft 359 kts 79°
2026-05-09 11:31 44.13019 8.78487 15903 ft 357 kts 90°
2026-05-09 11:31 44.12781 8.81911 15493 ft 354 kts 102°
2026-05-09 11:32 44.12059 8.85168 15083 ft 351 kts 114°
2026-05-09 11:32 44.11126 8.88297 14675 ft 349 kts 113°
2026-05-09 11:32 44.10205 8.91412 14271 ft 347 kts 113°
2026-05-09 11:32 44.09290 8.94511 13837 ft 346 kts 113°
2026-05-09 11:33 44.08377 8.97599 13413 ft 343 kts 113°
2026-05-09 11:33 44.07473 9.00659 12977 ft 341 kts 113°
2026-05-09 11:33 44.05674 9.06729 12079 ft 337 kts 113°
2026-05-09 11:34 44.04860 9.09760 11613 ft 336 kts 105°
2026-05-09 11:34 44.04595 9.12980 11075 ft 337 kts 87°
2026-05-09 11:34 44.05111 9.16143 10608 ft 336 kts 66°
2026-05-09 11:34 44.06365 9.18836 10239 ft 331 kts 48°
2026-05-09 11:35 44.07988 9.20967 9991 ft 311 kts 43°
2026-05-09 11:35 44.09534 9.22955 9705 ft 296 kts 42°
2026-05-09 11:35 44.11166 9.24637 9422 ft 289 kts 30°
2026-05-09 11:35 44.12987 9.25722 9164 ft 282 kts 14°
2026-05-09 11:36 44.14905 9.25909 8873 ft 272 kts 355°
2026-05-09 11:36 44.16821 9.25702 8289 ft 279 kts 356°
2026-05-09 11:36 44.18752 9.25510 7893 ft 277 kts 356°
2026-05-09 11:36 44.20669 9.25336 7363 ft 276 kts 357°
2026-05-09 11:37 44.22572 9.25178 6775 ft 275 kts 357°
2026-05-09 11:37 44.24484 9.25066 6348 ft 275 kts 359°
2026-05-09 11:37 44.26395 9.25000 5926 ft 274 kts
2026-05-09 11:37 44.28297 9.24984 5514 ft 273 kts
2026-05-09 11:38 44.30182 9.24975 5193 ft 269 kts 357°
2026-05-09 11:38 44.31885 9.24226 5081 ft 248 kts 324°
2026-05-09 11:38 44.32891 9.22421 4991 ft 233 kts 292°
2026-05-09 11:38 44.33399 9.20290 4667 ft 230 kts 288°
2026-05-09 11:39 44.33891 9.18211 4534 ft 219 kts 289°
2026-05-09 11:39 44.34407 9.16245 4435 ft 215 kts 290°
2026-05-09 11:39 44.34910 9.14317 4236 ft 212 kts 289°
2026-05-09 11:40 44.35835 9.10501 3792 ft 196 kts 286°
2026-05-09 11:40 44.36192 9.08752 3614 ft 178 kts 283°
2026-05-09 11:40 44.36493 9.07172 3384 ft 161 kts 283°
2026-05-09 11:40 44.36778 9.05697 3094 ft 154 kts 283°
2026-05-09 11:41 44.37055 9.04287 2875 ft 148 kts 284°
2026-05-09 11:41 44.37342 9.02902 2698 ft 147 kts 284°
2026-05-09 11:41 44.37663 9.01548 2569 ft 148 kts 288°
2026-05-09 11:41 44.38000 9.00193 2257 ft 147 kts 286°
2026-05-09 11:42 44.38315 8.98839 2005 ft 146 kts 285°
2026-05-09 11:42 44.38630 8.97488 1813 ft 147 kts 284°
2026-05-09 11:42 44.38917 8.96121 1706 ft 146 kts 283°
2026-05-09 11:42 44.39179 8.94731 1361 ft 148 kts 281°
2026-05-09 11:43 44.39413 8.93351 1138 ft 147 kts 279°
2026-05-09 11:43 44.39677 8.91995 990 ft 148 kts 282°
2026-05-09 11:43 44.39941 8.90612 814 ft 146 kts 278°
2026-05-09 11:43 44.40183 8.89246 581 ft 143 kts 279°
2026-05-09 11:44 44.40466 8.87903 371 ft 142 kts 282°
2026-05-09 11:44 44.40727 8.86566 182 ft 143 kts 281°
2026-05-09 11:44 44.40988 8.85240 42 ft 140 kts 282°
2026-05-09 11:44 44.41206 8.84084 31 ft 97 kts 286°
2026-05-09 11:45 44.41337 8.83409 30 ft 53 kts 285°
2026-05-09 11:45 44.41407 8.83145 31 ft 26 kts 313°
2026-05-09 11:45 44.41517 8.83087 30 ft 12 kts
2026-05-09 11:45 44.41535 8.83169 29 ft 6 kts 117°
2026-05-09 11:46 44.41529 8.83247 29 ft 11 kts 95°
2026-05-09 11:46 44.41519 8.83318 29 ft 11 kts 103°
2026-05-09 11:46 44.41501 8.83421 29 ft 11 kts 105°
2026-05-09 11:46 44.41481 8.83524 30 ft 11 kts 105°
2026-05-09 11:47 44.41460 8.83626 29 ft 11 kts 105°
2026-05-09 11:47 44.41439 8.83731 31 ft 13 kts 105°
2026-05-09 11:47 44.41412 8.83871 31 ft 15 kts 105°
2026-05-09 11:47 44.41384 8.84014 30 ft 15 kts 105°
2026-05-09 11:48 44.41356 8.84160 29 ft 15 kts 105°
2026-05-09 11:48 44.41327 8.84305 28 ft 15 kts 105°
2026-05-09 11:48 44.41334 8.84439 28 ft 14 kts 57°
2026-05-09 11:48 44.41393 8.84547 26 ft 14 kts 52°
2026-05-09 11:49 44.41406 8.84667 30 ft 13 kts 103°
2026-05-09 11:49 44.41384 8.84786 35 ft 13 kts 105°
2026-05-09 11:49 44.41361 8.84902 32 ft 12 kts 105°
2026-05-09 11:49 44.41360 8.85011 34 ft 8 kts 46°
2026-05-09 11:50 44.41406 8.85034 31 ft 3 kts 15°
2026-05-09 11:50 44.41416 8.85038 31 ft 0 kts 15°